Tracking 23731 objects as of 26-Sep-2021
HD Live streaming from Space Station
objects crossing your sky now

STARLINK-2647

Track STARLINK-2647 now!
10-day predictions
STARLINK-2647 is classified as:


NORAD ID: 48658
Int'l Code: 2021-044W
Perigee: 553.4 km
Apogee: 555.4 km
Inclination: 53.1 °
Period: 95.6 minutes
Semi major axis: 6925 km
RCS: Unknown
Launch date: May 26, 2021
Source: United States (US)
Launch site: AIR FORCE EASTERN TEST RANGE (AFETR)
aabbcc
Your satellite tracking list
Your tracking list is empty




NASA's NSSDC Master Catalog

Two Line Element Set (TLE):
1 48658U 21044W   21268.56482978 -.00001822  00000-0 -10345-3 0  9991
2 48658  53.0561 221.5739 0001440  78.9352 281.1798 15.06393409 18617
Source of the keplerian elements: AFSPC